TimeCST,TemperatureF,Dew PointF,Humidity,Sea Level PressureIn,VisibilityMPH,Wind Direction,Wind SpeedMPH,Gust SpeedMPH,PrecipitationIn,Events,Conditions,WindDirDegrees,DateUTC
12:51 AM,48.9,30.9,50,30.12,10.0,SSW,10.4,-,N/A,,Partly Cloudy,210,2012-11-30 06:51:00
1:51 AM,46.9,32.0,56,30.13,10.0,SSW,6.9,-,N/A,,Partly Cloudy,210,2012-11-30 07:51:00
2:51 AM,48.9,30.9,50,30.11,10.0,SSW,10.4,-,N/A,,Partly Cloudy,210,2012-11-30 08:51:00
3:51 AM,48.9,30.9,50,30.10,10.0,SSW,11.5,-,N/A,,Partly Cloudy,210,2012-11-30 09:51:00
4:51 AM,48.0,30.0,50,30.11,10.0,SSW,6.9,-,N/A,,Partly Cloudy,210,2012-11-30 10:51:00
5:51 AM,48.0,30.0,50,30.11,10.0,SSW,4.6,-,N/A,,Mostly Cloudy,210,2012-11-30 11:51:00
6:51 AM,48.0,30.0,50,30.11,10.0,South,3.5,-,N/A,,Scattered Clouds,180,2012-11-30 12:51:00
7:51 AM,44.1,32.0,63,30.12,10.0,Calm,Calm,-,N/A,,Scattered Clouds,0,2012-11-30 13:51:00
8:51 AM,52.0,32.0,47,30.13,10.0,SW,9.2,-,N/A,,Scattered Clouds,220,2012-11-30 14:51:00
9:51 AM,57.0,35.1,44,30.13,10.0,SW,9.2,-,N/A,,Scattered Clouds,230,2012-11-30 15:51:00
10:51 AM,60.1,37.9,44,30.12,10.0,WSW,12.7,20.7,N/A,,Partly Cloudy,250,2012-11-30 16:51:00
11:51 AM,63.0,39.9,43,30.09,10.0,West,12.7,-,N/A,,Partly Cloudy,260,2012-11-30 17:51:00
12:51 PM,64.9,41.0,42,30.07,10.0,WSW,9.2,-,N/A,,Scattered Clouds,240,2012-11-30 18:51:00
1:51 PM,64.9,41.0,42,30.06,10.0,South,4.6,-,N/A,,Scattered Clouds,190,2012-11-30 19:51:00
2:51 PM,66.0,42.1,42,30.06,10.0,SSW,6.9,-,N/A,,Scattered Clouds,200,2012-11-30 20:51:00
3:51 PM,66.2,42.8,43,30.07,10.0,SW,5.8,-,N/A,,Mostly Cloudy,220,2012-11-30 21:51:00
4:51 PM,64.0,42.1,45,30.08,10.0,Calm,Calm,-,N/A,,Mostly Cloudy,0,2012-11-30 22:51:00
5:51 PM,55.9,42.1,60,30.09,10.0,SSE,5.8,-,N/A,,Mostly Cloudy,160,2012-11-30 23:51:00
6:51 PM,59.0,41.0,51,30.09,10.0,South,8.1,-,N/A,,Mostly Cloudy,170,2012-12-01 00:51:00
7:51 PM,54.0,41.0,62,30.11,10.0,Calm,Calm,-,N/A,,Mostly Cloudy,0,2012-12-01 01:51:00
8:51 PM,57.0,39.9,53,30.09,10.0,South,6.9,-,N/A,,Overcast,180,2012-12-01 02:51:00
9:51 PM,55.0,39.9,57,30.09,10.0,South,5.8,-,N/A,,Mostly Cloudy,180,2012-12-01 03:51:00
10:51 PM,54.0,39.9,59,30.10,10.0,South,6.9,-,N/A,,Overcast,170,2012-12-01 04:51:00
11:51 PM,52.0,39.9,63,30.09,10.0,South,5.8,-,N/A,,Scattered Clouds,190,2012-12-01 05:51:00